This demonstration page uses our WeatherBlox Daily Observations layout. Learn more.

Left ArrowRight Arrow

Hourly Observations for August 6, 2021

Temp ( °F °C ) Dew Point ( °F °C ) Humidity (%) Winds ( mph kmh ) Pressure ( in mb ) Visibility ( mi km ) Precip ( " mm )
12:59 am 00:59 Mostly Clear 68 20 64 17.8 87 87 Calm 30.18 1022 9 14 0.00 0.00
1:59 am 01:59 Mostly Clear 67 19.4 63 17.2 87 87 Calm 30.17 1022 8 13 0.00 0.00
2:59 am 02:59 Mostly Clear 66 18.9 63 17.2 90 90 Calm 30.17 1022 9 14 0.00 0.00
3:59 am 03:59 Mostly Clear 65 18.3 63 17.2 93 93 Calm 30.16 1022 8 13 0.00 0.00
4:59 am 04:59 Mostly Clear 65 18.3 62 16.7 90 90 Calm 30.17 1022 7 11 0.00 0.00
5:59 am 05:59 Mostly Clear 65 18.3 62 16.7 90 90 Calm 30.17 1022 8 13 0.00 0.00
6:59 am 06:59 Mostly Sunny 66 18.9 64 17.8 93 93 Calm 30.18 1022 7 11 0.00 0.00
7:59 am 07:59 Mostly Sunny 74 23.3 67 19.4 79 79 NNW 3 6 30.20 1023 7 11 0.00 0.00
8:59 am 08:59 Partly Cloudy 77 25 68 20 74 74 N 7 11 30.20 1023 8 13 0.00 0.00
9:59 am 09:59 Partly Cloudy 79 26.1 64 17.8 60 60 ENE 8 13 30.21 1023 8 13 0.00 0.00
10:59 am 10:59 Partly Cloudy 80 26.7 62 16.7 54 54 NE 8 13 30.21 1023 8 13 0.00 0.00
11:59 am 11:59 Partly Cloudy 81 27.2 63 17.2 54 54 ENE 8 13 30.21 1023 8 13 0.00 0.00
12:59 pm 12:59 Partly Cloudy 81 27.2 64 17.8 57 57 E 10 17 30.20 1023 8 13 0.00 0.00
1:59 pm 13:59 Mostly Cloudy 82 27.8 62 16.7 51 51 ENE 12 19 30.19 1022 9 14 0.00 0.00
2:59 pm 14:59 Mostly Cloudy 81 27.2 65 18.3 58 58 ENE 10 17 30.17 1022 9 14 0.00 0.00
3:59 pm 15:59 Mostly Cloudy 81 27.2 67 19.4 62 62 ENE 10 17 30.16 1021 9 14 0.00 0.00
4:59 pm 16:59 Mostly Cloudy 80 26.7 67 19.4 64 64 ENE 13 20 30.15 1021 8 13 0.00 0.00
5:59 pm 17:59 Mostly Cloudy 80 26.7 67 19.4 64 64 E 12 19 30.15 1021 8 13 0.00 0.00
6:59 pm 18:59 Mostly Cloudy 78 25.6 67 19.4 69 69 E 8 13 30.14 1021 8 13 0.00 0.00
7:59 pm 19:59 Mostly Cloudy 76 24.4 66 18.9 72 72 ESE 6 9 30.15 1021 8 13 0.00 0.00
8:59 pm 20:59 Mostly Cloudy 74 23.3 66 18.9 76 76 ESE 6 9 30.15 1021 10 16 0.00 0.00
9:59 pm 21:59 Partly Cloudy 73 22.8 67 19.4 81 81 ESE 3 6 30.15 1021 9 14 0.00 0.00
10:59 pm 22:59 Mostly Cloudy 72 22.2 68 20 87 87 Calm 30.14 1021 9 14 0.00 0.00
11:59 pm 23:59 Mostly Cloudy 74 23.3 69 20.6 85 85 SSE 3 6 30.14 1021 9 14 0.00 0.00

Powered by AerisWeather